Temp
23 25 26 28 29 30 32 32 32 33 30 31 31 29 20 30 30 28 27 26 25 25 24 23 23 23 22 21 20 20 19 19 18 18 19 20 20 20 20 20 20 19 19 18
26 25 28 29 29 29 30 30 31 33 33 30 30 30 30 31 31 29 28 27 26 26 25 24 23 23 22 21 20 19 19 19 18 18 19 20 21 21 21 21 19 19 19 18
26 28 28 28 28 28 29 29 30 31 33 33 31 29 30 25 31 30 28 28 27 26 25 24 23 23 23 22 20 19 19 18 18 19 19 19 20 21 21 21 20 19 19 19
26 28 27 27 27 28 28 29 30 30 31 31 32 29 23 26 31 31 29 28 28 26 26 25 23 23 23 22 21 20 19 18 18 19 19 19 20 21 21 21 21 20 19 19
26 26 27 26 27 28 27 30 30 29 30 30 31 30 29 29 27 31 31 29 28 27 26 25 24 23 23 23 21 20 19 18 19 19 20 19 20 21 21 22 21 21 19 19
25 27 27 27 28 28 28 28 28 29 29 28 29 31 31 30 30 33 32 30 29 28 27 26 25 24 23 23 22 21 19 19 19 19 20 19 19 21 22 22 21 21 21 20
25 25 27 26 26 28 27 27 26 26 27 27 30 30 32 34 31 32 33 31 30 29 28 27 26 25 24 23 23 22 20 19 20 19 21 19 19 21 21 21 21 21 22 22
24 25 26 27 26 27 27 27 27 25 27 29 30 30 31 34 34 32 30 32 31 30 29 28 26 25 24 24 23 22 21 19 19 19 20 21 20 20 20 20 21 21 22 22
23 24 26 26 27 27 27 26 29 28 30 30 32 32 33 34 34 31 24 32 31 31 30 29 27 26 25 24 23 22 21 20 19 19 19 21 21 21 20 21 21 21 21 22
21 20 24 25 25 25 26 28 26 27 25 26 30 31 32 32 33 33 33 33 32 31 31 30 28 27 26 25 24 22 22 20 19 19 19 20 21 22 21 20 20 20 21 21
20 20 21 24 23 23 25 25 26 28 28 27 28 31 34 33 33 33 33 32 33 32 32 31 30 28 26 25 24 23 22 21 20 19 19 20 19 20 22 20 20 20 20 20
20 19 19 21 25 25 25 25 26 25 25 28 28 30 34 34 34 33 33 33 32 32 32 31 31 29 28 26 25 24 23 22 21 20 19 19 20 20 20 21 20 20 20 20
18 17 17 19 21 22 23 24 25 25 27 26 27 29 33 33 32 33 32 32 32 32 32 31 31 30 28 27 26 25 24 23 22 21 20 20 20 20 20 20 21 21 21 21
14 16 17 18 20 20 21 22 23 25 25 25 27 29 31 31 31 31 32 32 32 32 32 32 31 30 29 28 26 25 25 24 24 22 22 21 20 20 20 20 21 21 22 22
15 14 16 17 18 19 19 20 22 23 23 23 26 27 29 31 31 31 31 31 31 30 31 32 32 31 29 28 27 25 25 24 24 23 22 22 21 20 20 21 20 22 22 23
16 14 14 13 16 18 17 18 19 20 22 22 22 23 28 27 27 31 29 29 28 28 29 29 30 30 30 28 27 25 25 25 25 24 23 23 21 20 21 21 21 21 22 23
14 10 12 12 15 17 16 18 19 20 21 22 21 23 26 26 27 26 28 26 26 26 27 27 27 29 29 28 27 26 24 24 25 24 23 23 22 22 21 21 21 22 22 23
12 10 11 10 14 12 17 21 21 20 21 23 23 24 25 25 25 23 23 23 23 23 24 24 25 26 26 28 28 27 26 24 24 24 24 23 22 22 22 21 22 23 24 23
14 13 9 9 12 15 17 16 15 16 19 23 23 23 24 24 24 24 22 20 20 20 20 21 22 23 24 25 27 28 26 24 23 24 23 23 22 21 21 22 22 23 23 24
14 13 10 12 11 11 16 14 14 15 17 17 23 23 23 22 22 24 18 17 18 18 19 19 20 21 22 23 24 26 27 25 23 23 23 23 22 22 21 21 22 23 24 24
9 8 10 11 10 13 16 14 13 12 13 11 14 14 18 20 18 16 15 15 15 16 17 16 17 20 21 22 23 24 26 26 24 23 23 22 21 21 20 20 20 22 23 21
8 8 9 11 11 10 11 13 12 11 9 10 11 12 12 14 14 13 14 14 14 14 15 14 15 18 21 24 24 23 24 26 25 23 22 22 21 21 21 20 20 20 21 21
9 8 9 10 11 11 9 8 8 8 9 7 10 10 10 11 12 11 12 12 12 12 13 12 13 15 19 21 24 23 23 25 24 23 22 21 21 20 21 20 20 20 20 21
5 4 6 7 11 7 4 5 5 5 6 7 9 9 9 9 10 9 9 10 10 11 11 10 11 13 17 19 21 22 24 23 23 22 21 21 20 20 21 21 20 21 21 21
2 1 3 5 5 4 4 4 4 4 6 6 7 7 7 7 8 7 8 8 9 9 10 10 10 11 13 16 18 19 21 22 22 21 21 21 21 20 20 21 21 21 22 23
3 3 3 4 3 3 4 3 3 4 4 5 6 6 6 6 6 7 7 8 9 9 9 11 11 11 11 14 16 18 19 20 20 21 21 22 22 21 21 22 22 23 23 23
Height
1487 1486 1478 1471 1471 1466 1454 1452 1456 1444 1454 1454 1458 1465 1480 1468 1475 1482 1489 1498 1505 1513 1521 1529 1535 1541 1546 1551 1556 1560 1564 1567 1571 1575 1578 1582 1584 1587 1589 1590 1591 1592 1594 1595
1477 1475 1470 1468 1465 1467 1463 1463 1456 1444 1441 1457 1455 1457 1462 1461 1466 1474 1483 1492 1501 1509 1517 1525 1532 1537 1542 1547 1552 1556 1561 1564 1568 1573 1577 1581 1583 1586 1588 1590 1590 1593 1594 1595
1467 1461 1467 1466 1467 1468 1467 1467 1461 1457 1445 1443 1449 1462 1455 1467 1458 1466 1478 1487 1497 1503 1509 1519 1526 1531 1538 1543 1548 1552 1556 1560 1564 1570 1575 1579 1582 1584 1587 1589 1590 1592 1594 1595
1462 1460 1462 1465 1466 1465 1470 1464 1463 1458 1457 1461 1447 1471 1475 1467 1454 1458 1472 1482 1489 1498 1506 1514 1521 1526 1531 1538 1544 1549 1553 1556 1560 1566 1572 1576 1579 1582 1584 1587 1588 1590 1592 1594
1460 1461 1461 1463 1462 1463 1468 1460 1460 1464 1463 1458 1450 1460 1449 1451 1463 1451 1463 1475 1482 1490 1497 1504 1511 1518 1525 1533 1538 1544 1548 1552 1557 1561 1567 1572 1576 1580 1583 1585 1586 1590 1590 1593
1459 1453 1456 1455 1457 1462 1465 1465 1464 1460 1464 1475 1456 1448 1443 1447 1444 1440 1452 1464 1474 1482 1490 1498 1506 1515 1522 1528 1534 1539 1542 1546 1551 1556 1562 1567 1572 1576 1580 1582 1584 1588 1589 1591
1459 1458 1456 1459 1457 1458 1464 1466 1479 1483 1475 1470 1446 1451 1434 1417 1433 1437 1436 1453 1464 1473 1482 1491 1499 1506 1512 1518 1525 1531 1535 1539 1544 1550 1555 1561 1567 1572 1576 1579 1582 1585 1587 1589
1460 1456 1450 1452 1456 1453 1457 1457 1462 1479 1465 1451 1437 1444 1433 1421 1423 1429 1435 1438 1452 1463 1472 1482 1489 1496 1503 1510 1517 1523 1528 1532 1538 1543 1549 1555 1561 1567 1572 1576 1580 1582 1584 1586
1459 1458 1442 1448 1448 1452 1449 1456 1445 1447 1432 1434 1418 1424 1421 1420 1423 1431 1447 1433 1448 1449 1460 1472 1482 1489 1496 1503 1508 1513 1520 1525 1531 1537 1542 1548 1554 1561 1567 1571 1574 1578 1581 1584
1470 1474 1451 1451 1456 1453 1449 1439 1456 1449 1467 1457 1426 1418 1421 1422 1422 1424 1427 1425 1434 1441 1450 1464 1474 1482 1489 1496 1503 1510 1515 1518 1524 1531 1536 1541 1546 1553 1561 1566 1569 1573 1577 1579
1480 1475 1467 1455 1458 1459 1455 1452 1445 1436 1440 1451 1447 1421 1394 1405 1416 1420 1425 1432 1432 1437 1444 1455 1465 1474 1482 1490 1497 1502 1509 1515 1519 1524 1529 1535 1540 1546 1553 1558 1563 1567 1571 1575
1480 1478 1473 1463 1448 1452 1449 1444 1445 1448 1450 1432 1434 1423 1392 1394 1404 1418 1419 1427 1433 1437 1440 1447 1456 1465 1474 1481 1488 1493 1499 1505 1509 1516 1523 1527 1534 1539 1544 1549 1555 1561 1564 1568
1487 1484 1483 1473 1463 1456 1452 1443 1441 1439 1432 1431 1438 1430 1400 1403 1409 1413 1420 1426 1429 1433 1438 1444 1451 1457 1465 1473 1480 1486 1492 1496 1503 1509 1515 1522 1527 1531 1536 1541 1548 1553 1558 1561
1501 1489 1478 1467 1458 1461 1455 1454 1446 1441 1439 1436 1427 1421 1407 1412 1417 1420 1420 1422 1426 1430 1434 1437 1443 1449 1458 1465 1472 1478 1484 1491 1497 1503 1508 1513 1517 1522 1528 1535 1540 1546 1550 1555
1502 1495 1484 1475 1468 1469 1466 1456 1442 1442 1440 1443 1428 1427 1414 1410 1418 1421 1423 1424 1425 1428 1429 1433 1437 1441 1450 1459 1465 1473 1480 1486 1491 1495 1500 1503 1509 1515 1522 1528 1533 1538 1543 1547
1492 1491 1489 1489 1479 1467 1470 1464 1461 1454 1447 1447 1445 1435 1420 1421 1420 1417 1426 1428 1432 1435 1435 1435 1436 1441 1447 1454 1459 1465 1472 1477 1483 1487 1490 1497 1502 1508 1513 1520 1526 1531 1535 1540
1490 1503 1496 1490 1476 1468 1466 1460 1457 1453 1447 1446 1448 1438 1434 1431 1434 1429 1427 1434 1438 1441 1441 1442 1442 1442 1444 1449 1455 1459 1464 1472 1478 1482 1486 1492 1495 1499 1504 1511 1517 1523 1528 1534
1493 1499 1498 1497 1477 1482 1453 1442 1442 1443 1440 1438 1439 1437 1436 1436 1437 1444 1439 1441 1442 1444 1444 1445 1445 1445 1444 1445 1448 1454 1459 1463 1469 1474 1479 1484 1489 1492 1498 1504 1508 1514 1520 1525
1480 1483 1501 1498 1481 1466 1448 1453 1460 1453 1441 1432 1433 1436 1434 1435 1437 1438 1438 1443 1444 1446 1445 1443 1442 1442 1442 1442 1443 1447 1452 1455 1461 1465 1469 1473 1479 1485 1490 1495 1500 1506 1513 1518
1474 1480 1493 1483 1482 1477 1456 1465 1466 1461 1448 1441 1424 1431 1433 1435 1438 1437 1444 1446 1445 1445 1443 1440 1438 1436 1436 1437 1439 1441 1444 1448 1450 1454 1457 1467 1473 1479 1482 1487 1493 1498 1504 1509
1481 1488 1483 1481 1481 1469 1454 1462 1464 1466 1461 1460 1454 1450 1445 1442 1444 1445 1446 1444 1443 1442 1439 1434 1430 1430 1428 1430 1433 1434 1436 1437 1440 1450 1457 1461 1466 1471 1477 1483 1489 1492 1496 1503
1483 1483 1481 1479 1474 1475 1470 1464 1467 1471 1471 1468 1464 1461 1458 1456 1454 1453 1449 1445 1443 1441 1438 1432 1427 1423 1423 1423 1424 1425 1427 1432 1438 1443 1449 1453 1458 1465 1472 1476 1481 1485 1490 1495
1483 1486 1480 1476 1468 1473 1479 1481 1477 1476 1472 1471 1469 1466 1464 1461 1458 1457 1453 1449 1446 1442 1437 1431 1425 1421 1415 1412 1418 1419 1421 1429 1432 1436 1441 1447 1452 1458 1465 1468 1473 1479 1483 1488
1494 1495 1490 1486 1471 1480 1482 1481 1478 1474 1469 1468 1466 1464 1464 1462 1460 1458 1454 1451 1448 1443 1437 1430 1424 1419 1413 1409 1409 1411 1420 1423 1427 1432 1436 1442 1445 1451 1458 1463 1468 1473 1477 1481
1503 1501 1495 1488 1484 1480 1480 1482 1477 1471 1465 1462 1462 1461 1460 1460 1458 1457 1454 1450 1447 1441 1437 1431 1426 1420 1415 1412 1410 1409 1411 1419 1424 1428 1432 1437 1442 1446 1450 1456 1460 1464 1470 1475
1501 1499 1495 1490 1491 1486 1482 1480 1475 1470 1466 1462 1459 1458 1458 1459 1458 1455 1453 1449 1446 1441 1437 1432 1427 1421 1415 1412 1410 1410 1412 1415 1419 1424 1429 1432 1436 1440 1444 1451 1453 1458 1464 1469
Wind_Speed
23 15 19 22 20 21 18 18 20 17 12 17 20 14 16 22 23 24 25 29 32 33 32 32 31 30 29 27 26 26 25 24 22 18 18 16 14 12 11 9 7 7 8 7
13 21 20 18 18 19 20 14 18 18 16 14 16 15 16 19 20 25 26 29 31 32 33 34 33 32 31 30 28 28 28 26 25 20 19 16 16 13 11 9 9 8 9 8
21 11 20 21 19 17 19 19 17 14 17 16 15 12 16 17 21 23 24 27 29 33 36 36 36 35 33 32 31 30 31 29 27 21 20 18 16 13 13 13 10 10 9 8
20 23 9 22 21 19 19 18 19 16 17 15 20 14 10 10 18 20 25 26 30 32 34 36 36 37 37 35 31 31 32 32 28 28 21 22 19 18 15 14 12 12 12 10
16 18 23 19 20 19 18 17 17 18 18 17 20 17 19 34 27 23 24 29 30 32 35 38 40 39 38 36 34 33 33 33 30 33 25 25 22 18 15 14 15 13 12 12
17 17 15 21 17 15 18 18 17 15 15 18 24 20 19 15 13 26 29 31 30 32 34 36 37 35 35 36 35 34 36 37 36 34 33 28 26 22 18 17 15 14 12 12
18 21 17 13 17 21 16 18 13 14 15 19 24 24 19 17 25 27 28 33 33 33 34 35 37 39 39 40 40 39 39 40 41 39 37 35 30 28 21 19 18 16 15 14
12 16 21 17 21 19 22 21 14 24 15 21 25 27 23 25 19 21 26 39 36 36 35 36 39 40 42 42 43 42 41 42 42 43 41 40 38 26 25 23 20 19 16 15
10 20 3 5 15 21 21 24 26 25 21 17 19 28 24 25 25 18 15 32 27 39 36 36 37 39 40 42 45 45 43 44 42 41 43 42 40 36 27 25 25 20 20 16
9 13 16 4 6 18 19 16 21 18 25 26 20 23 19 25 24 26 18 16 34 37 33 34 35 37 39 40 41 42 44 43 42 42 44 42 42 40 35 31 27 25 21 22
15 10 16 17 12 17 16 20 18 19 23 20 19 15 18 24 25 22 25 23 23 28 31 32 33 36 38 37 38 41 42 41 41 42 43 42 40 38 41 36 34 31 25 22
9 13 14 23 13 15 21 24 24 17 22 21 21 16 6 19 24 23 24 33 30 28 29 32 30 33 36 38 39 41 42 42 42 42 45 44 41 39 37 43 41 33 31 29
10 10 13 19 15 17 19 23 17 19 22 24 20 19 14 6 3 14 25 31 32 33 29 25 27 31 34 37 39 40 41 42 40 40 43 43 42 43 42 40 42 38 36 33
8 14 17 15 8 13 14 26 24 22 18 22 21 22 24 10 5 11 16 23 30 32 35 31 32 30 31 36 40 41 41 40 38 38 40 44 46 45 43 42 41 41 39 36
10 18 19 19 21 15 17 19 15 22 19 20 21 25 23 20 13 8 6 10 11 6 11 31 29 27 30 33 38 40 40 40 39 41 41 46 47 45 42 43 42 43 40 39
15 17 18 20 20 17 20 20 19 22 22 21 21 25 23 21 30 20 8 10 3 6 6 9 17 21 24 28 35 37 42 42 42 43 45 43 44 45 45 44 45 44 44 42
14 8 13 19 19 22 22 24 24 24 25 23 22 22 19 18 9 20 8 5 5 10 8 6 9 13 24 27 29 35 42 42 41 42 44 43 44 46 48 47 47 47 46 43
13 11 11 13 18 17 17 16 18 20 27 25 25 25 25 26 20 14 8 5 7 10 11 12 12 13 14 21 27 29 32 42 43 46 41 45 44 46 47 46 48 47 45 45
19 13 6 5 13 14 24 5 7 9 17 26 25 24 30 29 32 18 7 2 7 11 14 15 15 15 15 18 20 27 33 36 43 42 49 47 48 46 46 49 50 49 47 46
20 17 10 13 11 17 16 6 10 9 12 22 11 13 12 20 13 10 11 7 9 11 12 15 16 16 18 21 22 24 32 36 43 47 49 47 45 44 45 48 51 52 49 47
13 12 16 15 12 11 7 4 9 7 0 20 16 19 14 11 12 12 13 12 11 12 12 15 14 16 19 20 23 30 31 38 42 41 39 41 43 44 42 40 41 47 49 36
8 7 11 15 17 17 16 10 6 7 14 14 15 12 15 14 10 13 11 13 14 14 13 13 12 8 10 17 24 31 37 34 34 35 39 39 40 40 38 40 40 40 42 41
3 4 4 5 7 5 8 9 15 17 19 16 15 12 13 14 10 10 11 11 12 13 13 12 10 6 2 2 11 25 31 27 33 35 37 37 37 38 37 38 39 35 36 34
5 7 4 6 5 10 19 15 17 21 18 19 13 9 10 10 10 10 11 12 11 12 14 14 9 10 4 5 7 12 16 25 28 32 32 34 35 37 37 33 31 30 30 32
3 5 4 5 13 25 18 13 15 17 11 2 1 3 6 6 8 8 9 11 12 12 14 17 15 13 10 8 8 11 17 22 25 28 30 32 31 35 38 32 31 30 28 29
5 4 3 1 4 7 4 14 15 15 13 6 5 5 5 6 7 4 6 10 12 12 12 17 17 16 15 10 10 9 15 17 24 27 28 30 31 31 31 32 33 31 30 32
Wind_Direction
198 213 214 215 228 237 266 239 228 214 177 228 220 175 152 193 167 159 167 173 180 184 185 188 188 188 189 189 188 187 186 190 188 188 183 183 186 185 184 186 189 195 182 189
189 221 224 228 231 231 252 258 262 234 191 206 225 231 188 170 175 166 174 176 182 184 185 189 191 192 192 192 192 190 190 195 192 191 187 189 187 189 194 199 202 187 193 197
227 215 221 233 231 236 233 241 244 248 236 209 234 225 235 227 172 168 178 181 184 187 187 189 193 194 195 196 195 195 193 197 197 189 189 190 194 198 198 194 202 194 193 195
226 245 219 218 234 228 237 220 257 257 255 225 222 240 277 279 190 175 180 186 185 188 192 192 194 196 197 199 198 199 198 199 202 184 197 194 190 194 199 201 203 202 194 197
227 228 240 222 234 226 242 251 227 240 253 260 248 226 190 205 197 177 188 187 190 190 192 193 198 198 198 198 200 200 204 202 199 203 191 202 193 201 199 200 195 191 208 198
264 259 235 244 226 236 239 243 255 245 233 241 237 246 229 205 231 191 187 190 196 192 193 196 199 198 200 201 202 202 205 207 202 211 198 201 205 198 205 201 199 200 204 207
231 238 245 245 252 216 214 228 223 224 222 235 225 234 244 202 198 241 182 193 193 196 195 195 194 198 200 200 202 203 204 211 211 210 212 202 202 199 204 207 203 204 208 213
277 221 215 216 231 235 217 228 226 220 222 233 225 223 224 249 210 206 272 185 195 193 195 196 198 199 199 200 201 203 204 210 212 209 215 214 214 208 203 209 207 208 212 216
272 246 172 261 221 230 234 218 239 258 250 254 222 218 237 219 237 170 215 183 215 188 194 197 200 201 201 202 202 203 204 208 213 209 213 218 217 212 211 209 210 209 214 216
296 280 276 248 263 269 262 248 223 235 245 251 245 238 212 216 223 227 224 238 187 203 189 199 201 203 204 205 205 205 206 208 211 207 213 216 221 221 208 210 213 216 214 217
300 285 269 266 215 249 222 250 256 262 224 244 249 245 236 197 209 226 218 221 227 201 194 202 201 204 206 206 205 207 208 208 210 210 210 211 215 216 216 209 216 211 213 217
290 288 265 254 233 249 253 250 235 246 242 227 248 250 284 211 194 213 217 214 221 221 207 200 203 202 203 204 205 205 205 207 211 209 208 210 211 211 216 217 217 221 223 224
291 235 255 251 261 262 260 250 250 265 255 240 227 234 268 131 305 212 213 229 225 220 207 203 205 200 204 204 206 206 206 207 208 208 209 209 211 213 211 219 221 224 229 231
307 276 271 273 278 336 269 230 248 245 245 243 249 231 240 148 180 232 238 217 226 216 225 210 204 202 203 205 203 205 207 206 206 209 207 210 211 211 216 213 223 224 228 230
250 257 264 267 273 273 283 289 252 239 259 259 242 242 257 241 205 205 236 235 231 268 253 217 224 204 194 202 202 203 208 207 207 207 207 210 211 211 210 215 218 225 226 228
244 249 276 274 278 265 261 256 253 261 253 255 265 275 276 295 329 213 226 271 318 285 255 260 217 216 202 204 203 204 206 208 206 207 208 209 209 210 212 213 217 224 226 227
256 252 259 263 259 264 243 241 241 241 242 245 242 250 266 267 282 342 238 266 285 258 274 266 263 232 215 209 209 209 208 208 208 210 211 208 210 214 213 215 218 224 227 228
222 251 252 265 273 245 268 241 248 252 244 237 241 253 257 261 277 275 304 317 296 287 275 263 253 244 236 224 216 214 212 209 210 211 211 210 210 215 215 213 219 224 226 228
245 213 251 242 257 260 258 44 1 331 288 227 235 235 250 258 261 264 272 304 298 288 283 276 267 258 248 235 230 215 211 211 210 213 211 212 209 211 213 216 218 222 225 228
232 230 205 258 248 254 272 46 343 316 248 359 258 219 271 281 284 255 2 329 307 296 295 293 285 270 252 242 229 226 212 210 211 212 213 210 210 210 213 217 219 223 226 228
201 230 208 228 248 259 316 2 327 256 161 340 352 352 314 295 338 346 336 344 335 320 316 316 311 286 268 247 231 223 219 213 216 213 213 211 210 210 213 213 216 222 225 217
184 204 220 238 238 244 14 308 294 352 315 331 328 333 338 321 336 331 342 350 350 339 328 335 335 327 300 262 231 227 221 221 211 210 208 209 209 209 212 212 217 218 220 219
269 350 287 293 250 5 345 315 308 306 291 288 294 298 313 307 326 333 336 344 347 348 347 346 355 333 223 126 234 225 233 219 205 203 206 206 207 206 204 213 213 213 216 213
352 357 283 325 231 344 338 319 317 308 293 265 268 283 299 303 315 330 342 346 352 4 6 1 9 33 77 112 142 166 200 198 198 200 203 203 204 202 198 209 209 207 210 213
311 313 288 296 325 315 295 315 328 328 340 163 313 1 2 341 344 338 345 355 2 8 15 20 19 32 55 81 120 166 178 193 205 204 203 201 204 203 198 199 200 201 207 213
324 343 345 319 338 333 18 358 343 339 334 327 319 308 297 280 291 316 336 16 15 17 13 23 23 34 39 57 87 132 176 186 197 205 202 200 197 199 193 193 197 199 206 216